Location: ??
(35.1714°N, 128.2806°E)
Time: 15:42:14
(UTC+00:00)

Cosmos 1812 Rocket - Pass Details

Date: 29 October 2020
Orbit: 605 x 632 km, 82.5° (Epoch: 30 November)

Event Time Altitude Azimuth Distance (km) Brightness Sun altitude
Rises 21:01:07 0° 359° (N) 2,866 6.9 -9.8°
Reaches altitude 10° 21:03:23 10° 4° (N) 1,958 6.1 -9.3°
Maximum altitude 21:07:37 52° 81° (E) 753 4.5 -8.5°
Drops below altitude 10° 21:11:49 10° 158° (SSE) 1,949 6.6 -7.7°
Sets 21:14:04 0° 164° (SSE) 2,851 7.4 -7.2°
